(62314) = 2000 SU119

Discovered at Socorro on 2000-09-24 by LINEAR.

Orbit

Orbit type: Main Belt

Note: WebGL enabled browser required.

epoch2024-03-31.0
epoch JD2460400.5
perihelion date2019-03-08.37553
perihelion JD2458550.87553
argument of perihelion (°)0.74278
ascending node (°)182.22095
inclination (°)9.73614
eccentricity0.0380886
perihelion distance (AU)2.9485753
Tisserand w.r.t. Jupiter3.2
ΔV w.r.t. Earth (km/sec)11.1
semimajor axis (AU)3.0653296
mean anomaly (°)339.68131
mean daily motion (°/day)0.18364880
aphelion distance (AU)3.182
period (years)5.37
P-vector [x]-0.99866970
P-vector [y]-0.04813816
P-vector [z]-0.01848097
Q-vector [x]0.05114567
Q-vector [y]-0.97031432
Q-vector [z]-0.23637732
absolute magnitude14.22
phase slope0.15
uncertainty0
referenceMPEC 2024-F28
observations used1785
oppositions21
arc length (days)9430
first opposition used1998
last opposition used2024
residual rms (arc-secs)0.67
perturbers coarse indicatorM-v
perturbers precise indicator003Ek
first observation date used1998-05-23.0
last observation date used2024-03-17.0
computer nameMPCLINUX
JD of orbit computation2456966.802556
perihelion JD uncertainty (days)2.6399E-04
argument of perihelion uncertainty (°)5.2211E-05
ascending node uncertainty (°)1.7297E-05
inclination uncertainty (°)4.9469E-06
eccentricity uncertainty 4.3158E-08
perihelion distance uncertainty (AU)1.3332E-07
Minimum Orbit Intersection Distances (in AU)
for orbit epoch: 2460400.5, reference: E2024-GB3
Mercury2.52572
Venus2.2291
Earth1.95088
Mars1.29698
Jupiter1.77046
Saturn5.99906
Uranus15.4925
Neptune26.6562

Observations

1792 total observations over interval: 1998 05 23.26950 – 2024 03 17.425756
These data are available for download (format description).

Date (UT) J2000 RA J2000 Dec Magn Location Ref
1998 05 23.26950 15 28 12.74 -07 01 20.3 18.8   704 – Lincoln Laboratory ETS, New Mexico MPS 22492
1998 05 23.28891 15 28 11.83 -07 01 17.8 19.0   704 – Lincoln Laboratory ETS, New Mexico MPS 22492
1998 05 23.30840 15 28 10.93 -07 01 13.2 19.0   704 – Lincoln Laboratory ETS, New Mexico MPS 22492
1998 05 23.32789 15 28 10.02 -07 01 06.4 19.3   704 – Lincoln Laboratory ETS, New Mexico MPS 22492
1998 05 23.34735 15 28 09.10 -07 01 06.1 19.3   704 – Lincoln Laboratory ETS, New Mexico MPS 22492
1999 08 17.21164 20 52 10.55 -06 54 56.4 19.2 V 691 – Steward Observatory, Kitt Peak-Spacewatch MPS 22492
1999 08 17.22485 20 52 09.98 -06 55 01.1 19.2 V 691 – Steward Observatory, Kitt Peak-Spacewatch MPS 22492
1999 08 17.23801 20 52 09.41 -06 55 05.3 19.1 V 691 – Steward Observatory, Kitt Peak-Spacewatch MPS 22492
2000 09 09.31768 02 21 30.37 +09 36 02.9 19.1 R 699 – Lowell Observatory-LONEOS MPS 30142
2000 09 09.33317 02 21 30.17 +09 35 59.2   699 – Lowell Observatory-LONEOS MPS 30142
2000 09 09.34862 02 21 30.15 +09 35 56.3   699 – Lowell Observatory-LONEOS MPS 30142
2000 09 09.36407 02 21 30.01 +09 35 52.8   699 – Lowell Observatory-LONEOS MPS 30142
2000 09 24.40879 02 17 19.80 +08 22 08.2 18.9   704 – Lincoln Laboratory ETS, New Mexico MPS 19982
2000 09 24.42321 02 17 19.40 +08 22 01.8 19.3   704 – Lincoln Laboratory ETS, New Mexico MPS 19982
2000 09 24.43771 02 17 19.00 +08 21 56.7 18.9   704 – Lincoln Laboratory ETS, New Mexico MPS 19982
2000 09 24.45345 02 17 18.52 +08 21 52.7 19.0   704 – Lincoln Laboratory ETS, New Mexico MPS 19982
2000 09 24.46820 02 17 18.21 +08 21 46.6 19.5   704 – Lincoln Laboratory ETS, New Mexico MPS 19982
2000 09 27.32613 02 16 00.85 +08 05 14.5 18.7   704 – Lincoln Laboratory ETS, New Mexico MPS 19982
2000 09 27.34127 02 16 00.45 +08 05 10.1 18.3   704 – Lincoln Laboratory ETS, New Mexico MPS 19982
2000 09 27.35649 02 15 59.93 +08 05 05.0 19.0   704 – Lincoln Laboratory ETS, New Mexico MPS 19982
2000 09 27.37177 02 15 59.44 +08 04 59.2 18.6   704 – Lincoln Laboratory ETS, New Mexico MPS 19982
2000 09 27.38692 02 15 59.06 +08 04 54.1 18.2   704 – Lincoln Laboratory ETS, New Mexico MPS 19982
2000 10 02.34687 02 13 24.43 +07 34 42.2 18.7   704 – Lincoln Laboratory ETS, New Mexico MPS 21239
2000 10 02.36126 02 13 23.93 +07 34 37.1 18.9   704 – Lincoln Laboratory ETS, New Mexico MPS 21239
2000 10 02.37604 02 13 23.39 +07 34 31.2 18.9   704 – Lincoln Laboratory ETS, New Mexico MPS 21239
2000 10 02.39043 02 13 22.87 +07 34 26.2 18.9   704 – Lincoln Laboratory ETS, New Mexico MPS 21239
2000 10 02.40491 02 13 22.41 +07 34 20.6 18.6   704 – Lincoln Laboratory ETS, New Mexico MPS 21239
2000 10 06.32977 02 11 04.06 +07 09 24.8 17.8 R 699 – Lowell Observatory-LONEOS MPS 21239
2000 10 06.37170 02 11 02.49 +07 09 07.8   699 – Lowell Observatory-LONEOS MPS 21239
2000 10 06.41361 02 11 00.94 +07 08 51.1   699 – Lowell Observatory-LONEOS MPS 21239
2000 10 06.45557 02 10 59.33 +07 08 35.4   699 – Lowell Observatory-LONEOS MPS 21239
2000 10 07.32181 02 10 27.18 +07 03 00.1 18.3 R 699 – Lowell Observatory-LONEOS MPS 21239
2000 10 07.36373 02 10 25.56 +07 02 43.6   699 – Lowell Observatory-LONEOS MPS 21239
2000 10 07.40571 02 10 23.95 +07 02 27.0   699 – Lowell Observatory-LONEOS MPS 21239
2000 10 07.44776 02 10 22.32 +07 02 09.5   699 – Lowell Observatory-LONEOS MPS 21239
2000 11 02.22943 01 52 11.37 +04 17 35.8 17.8   704 – Lincoln Laboratory ETS, New Mexico MPS 21239
2000 11 02.24338 01 52 10.80 +04 17 31.3 18.6   704 – Lincoln Laboratory ETS, New Mexico MPS 21239
2000 11 02.25733 01 52 10.19 +04 17 26.1 18.8   704 – Lincoln Laboratory ETS, New Mexico MPS 21239
2000 11 02.27328 01 52 09.51 +04 17 21.5 18.8   704 – Lincoln Laboratory ETS, New Mexico MPS 21239
2000 11 02.28740 01 52 08.85 +04 17 15.9 18.0   704 – Lincoln Laboratory ETS, New Mexico MPS 21239
2000 11 26.15128 01 38 57.34 +02 37 58.2 19.3   704 – Lincoln Laboratory ETS, New Mexico MPS 22492
2000 11 26.18587 01 38 56.59 +02 37 53.8 18.9   704 – Lincoln Laboratory ETS, New Mexico MPS 22492
2000 11 26.20098 01 38 56.32 +02 37 51.3 19.3   704 – Lincoln Laboratory ETS, New Mexico MPS 22492
2000 11 26.22029 01 38 55.82 +02 37 48.3 19.2   704 – Lincoln Laboratory ETS, New Mexico MPS 22492
2000 11 26.23512 01 38 55.46 +02 37 46.6 19.2   704 – Lincoln Laboratory ETS, New Mexico MPS 22492
2001 12 11.37204 07 47 38.85 +07 49 45.4 18.9   704 – Lincoln Laboratory ETS, New Mexico MPS 43492
2001 12 11.38694 07 47 38.42 +07 49 44.8 19.9   704 – Lincoln Laboratory ETS, New Mexico MPS 43492
2001 12 11.41675 07 47 37.55 +07 49 43.3 19.4   704 – Lincoln Laboratory ETS, New Mexico MPS 43492
2003 01 31.46880 13 37 01.06 -09 09 48.6 19.1   704 – Lincoln Laboratory ETS, New Mexico MPS 71314
2003 01 31.49681 13 37 01.83 -09 09 48.9 19.3   704 – Lincoln Laboratory ETS, New Mexico MPS 71314
2003 01 31.52486 13 37 02.69 -09 09 48.8 19.6   704 – Lincoln Laboratory ETS, New Mexico MPS 71314
2003 03 10.37702 13 40 24.74 -07 24 59.7 19.0   704 – Lincoln Laboratory ETS, New Mexico MPS 73858
2003 03 10.39060 13 40 24.51 -07 24 54.6 19.0   704 – Lincoln Laboratory ETS, New Mexico MPS 73858
2003 03 10.40424 13 40 24.13 -07 24 50.1 19.5   704 – Lincoln Laboratory ETS, New Mexico MPS 73858
2003 03 10.41855 13 40 23.87 -07 24 46.0 19.2   704 – Lincoln Laboratory ETS, New Mexico MPS 73858
2003 03 10.43261 13 40 23.59 -07 24 41.3 19.4   704 – Lincoln Laboratory ETS, New Mexico MPS 73858
2003 03 13.47740 13 39 19.09 -07 07 18.6 19.4   608 – Haleakala-AMOS MPS 73858
2003 03 13.48796 13 39 18.81 -07 07 14.7 19.4   608 – Haleakala-AMOS MPS 73858
2003 03 13.49918 13 39 18.54 -07 07 11.2 19.6   608 – Haleakala-AMOS MPS 73858
2003 03 24.49010 13 34 00.93 -05 56 02.3 20.4   608 – Haleakala-AMOS MPS 75796
2003 03 24.50068 13 34 00.54 -05 55 57.7 19.2   608 – Haleakala-AMOS MPS 75796
2003 03 24.51143 13 34 00.17 -05 55 53.8 19.1   608 – Haleakala-AMOS MPS 75796
2003 03 26.33058 13 32 56.55 -05 43 07.7 17.9 R 699 – Lowell Observatory-LONEOS MPS 75796
2003 03 26.34832 13 32 56.02 -05 43 01.1   699 – Lowell Observatory-LONEOS MPS 75796
2003 03 26.36608 13 32 55.28 -05 42 53.1   699 – Lowell Observatory-LONEOS MPS 75796
2003 03 26.38377 13 32 54.61 -05 42 46.6   699 – Lowell Observatory-LONEOS MPS 75796
2003 03 27.34975 13 32 19.84 -05 35 52.1 18.0   644 – Palomar Mountain/NEAT MPS 75796
2003 03 27.37665 13 32 18.81 -05 35 40.4 17.9   644 – Palomar Mountain/NEAT MPS 75796
2003 03 27.39775 13 32 18.02 -05 35 31.5 18.1   644 – Palomar Mountain/NEAT MPS 75796
2003 03 30.29716 13 30 29.43 -05 14 34.9 18.2   704 – Lincoln Laboratory ETS, New Mexico MPS 75796
2003 03 30.30995 13 30 28.85 -05 14 29.0 18.5   704 – Lincoln Laboratory ETS, New Mexico MPS 75796
2003 03 30.32217 13 30 28.40 -05 14 24.0 18.7   704 – Lincoln Laboratory ETS, New Mexico MPS 75796
2003 03 30.33602 13 30 27.86 -05 14 17.6 18.4   704 – Lincoln Laboratory ETS, New Mexico MPS 75796
2003 03 30.34853 13 30 27.38 -05 14 12.8 18.1   704 – Lincoln Laboratory ETS, New Mexico MPS 75796
2003 04 02.31650 13 28 30.79 -04 52 24.7 18.1   704 – Lincoln Laboratory ETS, New Mexico MPS 75796
2003 04 02.32848 13 28 30.15 -04 52 19.0 17.5 C 704 – Lincoln Laboratory ETS, New Mexico MPS 290935
2003 04 02.34048 13 28 29.79 -04 52 13.1 18.2   704 – Lincoln Laboratory ETS, New Mexico MPS 75796
2003 04 02.35249 13 28 29.31 -04 52 08.7 18.4   704 – Lincoln Laboratory ETS, New Mexico MPS 75796
2003 04 05.33874 13 26 27.79 -04 30 00.6 18.3 V 691 – Steward Observatory, Kitt Peak-Spacewatch MPS 75796
2003 04 05.36651 13 26 26.59 -04 29 48.3 18.3 V 691 – Steward Observatory, Kitt Peak-Spacewatch MPS 75796
2003 04 05.39384 13 26 25.43 -04 29 36.0 18.3 V 691 – Steward Observatory, Kitt Peak-Spacewatch MPS 75796
2003 04 07.40993 13 25 01.73 -04 14 39.2 18.4 V 691 – Steward Observatory, Kitt Peak-Spacewatch MPS 75796
2003 04 07.43798 13 25 00.59 -04 14 26.8 18.2 V 691 – Steward Observatory, Kitt Peak-Spacewatch MPS 75796
2003 04 07.46580 13 24 59.36 -04 14 14.0 18.4 V 691 – Steward Observatory, Kitt Peak-Spacewatch MPS 75796
2003 04 08.30685 13 24 24.27 -04 08 01.3 17.8   704 – Lincoln Laboratory ETS, New Mexico MPS 75796
